Park Rapids, MN

10:58 PM CST on December 07, 2016 (GMT -0600)
Park Rapids Municipal

Weather History for KPKD - August, 2013

Change the Weather History Date:

Tuesday, August 6, 2013

  Actual Average Record
Temperature  
Mean Temperature 60 °F -  
Max Temperature 73 °F 81 °F 94 °F (1984)
Min Temperature 46 °F 54 °F 40 °F (1977)
Degree Days  
Heating Degree Days 6    
Growing Degree Days 10 (Base 50)    
Moisture  
Dew Point 54 °F    
Average Humidity 87    
Maximum Humidity 100    
Minimum Humidity 57    
Precipitation  
Precipitation 0.04 in - - ()
Sea Level Pressure  
Sea Level Pressure 29.80 in    
Wind  
Wind Speed 4 mph (NW)    
Max Wind Speed 14 mph    
Max Gust Speed 18 mph    
Visibility 8 miles    
Events Fog , Rain    
Averages and records for this station are not official NWS values.
T = Trace of Precipitation, MM = Missing Value Source: NWS Daily Summary

Daily Weather History Graph

Daily Weather History Graph

Search for Another Location

Airport or City:

Trip Planner

Search our weather history database for the weather conditions in past years. The results will help you decide how hot, cold, wet, or windy it might be!

Date:

Astronomy

Aug. 06, 2013 Rise Set
Actual Time 6:06 AM CDT 8:44 PM CDT
Civil Twilight 5:31 AM CDT 9:19 PM CDT
Nautical Twilight 4:48 AM CDT 10:02 PM CDT
Astronomical Twilight 3:57 AM CDT 10:53 PM CDT
Moon 6:02 AM CDT (8/6) 8:14 PM CDT (8/6)
Length of Visible Light 15h 47m
Length of Day
14h 38m
Waning Crescent, 0% of the Moon is Illuminated
Aug 6
Waning Crescent
Aug 6
New
Aug 14
First Quarter
Aug 20
Full
Aug 28
Last Quarter

Hourly Weather History & Observations

Time (CDT) Temp. Windchill Dew Point Humidity Pressure Visibility Wind Dir Wind Speed Gust Speed Precip Events Conditions
12:53 AM 52.0 °F - 51.1 °F 97% 29.85 in 8.0 mi Calm Calm - N/A   Clear
1:53 AM 48.9 °F - 48.0 °F 97% 29.83 in 3.0 mi WSW 3.5 mph - N/A   Clear
1:55 AM 48.2 °F - 46.4 °F 93% 29.82 in 1.5 mi SW 3.5 mph - N/A   Clear
2:03 AM 46.4 °F 44.3 °F 46.4 °F 100% 29.82 in 0.5 mi SW 4.6 mph - N/A Fog Fog
2:12 AM 48.2 °F - 48.2 °F 100% 29.83 in 2.5 mi WSW 4.6 mph - N/A   Clear
2:19 AM 48.2 °F - 48.2 °F 100% 29.82 in 7.0 mi West 3.5 mph - N/A   Clear
2:22 AM 48.2 °F - 48.2 °F 100% 29.82 in 1.5 mi Calm Calm - N/A   Clear
2:33 AM 50.0 °F - 48.2 °F 94% 29.82 in 3.0 mi Calm Calm - N/A   Clear
2:53 AM 51.1 °F - 51.1 °F 100% 29.84 in 2.5 mi West 3.5 mph - N/A   Clear
3:08 AM 51.8 °F - 50.0 °F 94% 29.82 in 10.0 mi Calm Calm - N/A   Clear
3:53 AM 51.1 °F - 50.0 °F 96% 29.80 in 10.0 mi Calm Calm - N/A   Clear
4:53 AM 50.0 °F - 48.0 °F 93% 29.78 in 10.0 mi Calm Calm - N/A   Clear
5:07 AM 46.4 °F 44.3 °F 46.4 °F 100% 29.79 in 1.0 mi SSE 4.6 mph - N/A   Mist
5:17 AM 50.0 °F - 48.2 °F 94% 29.78 in 2.0 mi ESE 4.6 mph - N/A   Partly Cloudy
5:24 AM 51.8 °F - 48.2 °F 88% 29.78 in 9.0 mi Calm Calm - N/A   Partly Cloudy
5:53 AM 50.0 °F - 48.9 °F 96% 29.79 in 9.0 mi SSE 3.5 mph - N/A   Clear
6:53 AM 53.1 °F - 51.1 °F 93% 29.79 in 10.0 mi Calm Calm - N/A   Partly Cloudy
7:53 AM 55.9 °F - 54.0 °F 93% 29.79 in 10.0 mi Calm Calm - N/A   Partly Cloudy
8:53 AM 59.0 °F - 55.9 °F 90% 29.79 in 10.0 mi Calm Calm - N/A   Mostly Cloudy
9:53 AM 59.0 °F - 55.9 °F 90% 29.79 in 7.0 mi Calm Calm - 0.01 in Rain Light Rain
10:53 AM 61.0 °F - 57.0 °F 87% 29.78 in 10.0 mi SSE 8.1 mph - 0.01 in Rain Light Rain
11:53 AM 64.0 °F - 60.1 °F 87% 29.77 in 10.0 mi SSE 8.1 mph - 0.01 in   Overcast
12:53 PM 69.1 °F - 61.0 °F 75% 29.76 in 10.0 mi SSW 4.6 mph - N/A   Mostly Cloudy
1:53 PM 73.0 °F - 59.0 °F 61% 29.76 in 10.0 mi West 4.6 mph - N/A   Mostly Cloudy
2:53 PM 73.0 °F - 57.0 °F 57% 29.75 in 10.0 mi NW 8.1 mph - N/A   Overcast
3:53 PM 70.0 °F - 60.1 °F 71% 29.75 in 10.0 mi NNW 12.7 mph - 0.00 in   Overcast
4:53 PM 69.1 °F - 60.1 °F 73% 29.75 in 10.0 mi NNW 10.4 mph - N/A   Mostly Cloudy
5:53 PM 69.1 °F - 62.1 °F 78% 29.77 in 10.0 mi NNW 8.1 mph - 0.01 in   Scattered Clouds
6:53 PM 66.9 °F - 62.1 °F 84% 29.76 in 10.0 mi NNW 10.4 mph - N/A   Partly Cloudy
7:53 PM 66.9 °F - 60.1 °F 79% 29.76 in 10.0 mi North 9.2 mph - N/A   Mostly Cloudy
8:17 PM 66.2 °F - 60.8 °F 83% 29.76 in 10.0 mi North 13.8 mph 18.4 mph N/A   Mostly Cloudy
8:29 PM 66.2 °F - 59.0 °F 78% 29.77 in 10.0 mi North 11.5 mph - N/A   Mostly Cloudy
8:53 PM 64.9 °F - 59.0 °F 81% 29.78 in 10.0 mi North 9.2 mph - N/A   Mostly Cloudy
9:16 PM 64.4 °F - 59.0 °F 83% 29.80 in 10.0 mi North 12.7 mph - N/A   Overcast
9:53 PM 63.0 °F - 57.0 °F 81% 29.83 in 10.0 mi North 12.7 mph - N/A   Overcast
10:10 PM 62.6 °F - 57.2 °F 82% 29.83 in 10.0 mi North 12.7 mph - N/A   Overcast
10:31 PM 62.6 °F - 57.2 °F 82% 29.85 in 10.0 mi NNW 10.4 mph - N/A   Overcast
10:53 PM 62.1 °F - 57.0 °F 84% 29.84 in 10.0 mi North 8.1 mph - N/A   Overcast
11:35 PM 60.8 °F - 55.4 °F 82% 29.85 in 10.0 mi North 11.5 mph - N/A   Scattered Clouds
11:53 PM 60.1 °F - 54.0 °F 80% 29.86 in 10.0 mi North 8.1 mph - N/A   Clear